Year,Month,Day,Hour,Minute,Value (Times are PST for temperature in C)
2008,05,20,00,00,14.40
2008,05,20,00,01,14.40
2008,05,20,00,02,14.40
2008,05,20,00,03,14.40
2008,05,20,00,04,14.40
2008,05,20,00,05,14.40
2008,05,20,00,06,14.40
2008,05,20,00,07,14.50
2008,05,20,00,08,14.50
2008,05,20,00,09,14.50
2008,05,20,00,10,14.50
2008,05,20,00,11,14.50
2008,05,20,00,12,14.40
2008,05,20,00,13,14.40
2008,05,20,00,14,14.40
2008,05,20,00,15,14.40
2008,05,20,00,16,14.40
2008,05,20,00,17,14.40
2008,05,20,00,18,14.40
2008,05,20,00,19,14.40
2008,05,20,00,20,14.40
2008,05,20,00,21,14.40
2008,05,20,00,22,14.40
2008,05,20,00,23,14.40
2008,05,20,00,24,14.40
2008,05,20,00,25,14.40
2008,05,20,00,26,14.40
2008,05,20,00,27,14.40
2008,05,20,00,28,14.40
2008,05,20,00,29,14.40
2008,05,20,00,30,14.40
2008,05,20,00,31,14.40
2008,05,20,00,32,14.40
2008,05,20,00,33,14.40
2008,05,20,00,34,14.40
2008,05,20,00,35,14.40
2008,05,20,00,36,14.40
2008,05,20,00,37,14.40
2008,05,20,00,38,14.40
2008,05,20,00,39,14.40
2008,05,20,00,40,14.40
2008,05,20,00,41,14.40
2008,05,20,00,42,14.40
2008,05,20,00,43,14.40
2008,05,20,00,44,14.40
2008,05,20,00,45,14.40
2008,05,20,00,46,14.30
2008,05,20,00,47,14.30
2008,05,20,00,48,14.30
2008,05,20,00,49,14.40
2008,05,20,00,50,14.40
2008,05,20,00,51,14.40
2008,05,20,00,52,14.40
2008,05,20,00,53,14.40
2008,05,20,00,54,14.40
2008,05,20,00,55,14.40
2008,05,20,00,56,14.40
2008,05,20,00,57,14.40
2008,05,20,00,58,14.40
2008,05,20,00,59,14.40
2008,05,20,01,00,14.40
2008,05,20,01,01,14.40
2008,05,20,01,02,14.30
2008,05,20,01,03,14.30
2008,05,20,01,04,14.30
2008,05,20,01,05,14.30
2008,05,20,01,06,14.30
2008,05,20,01,07,14.30
2008,05,20,01,08,14.30
2008,05,20,01,09,14.30
2008,05,20,01,10,14.30
2008,05,20,01,11,14.30
2008,05,20,01,12,14.30
2008,05,20,01,13,14.30
2008,05,20,01,14,14.30
2008,05,20,01,15,14.30
2008,05,20,01,16,14.30
2008,05,20,01,17,14.30
2008,05,20,01,18,14.30
2008,05,20,01,19,14.30
2008,05,20,01,20,14.30
2008,05,20,01,21,14.30
2008,05,20,01,22,14.30
2008,05,20,01,23,14.30
2008,05,20,01,24,14.30
2008,05,20,01,25,14.30
2008,05,20,01,26,14.30
2008,05,20,01,27,14.30
2008,05,20,01,28,14.30
2008,05,20,01,29,14.30
2008,05,20,01,30,14.30
2008,05,20,01,31,14.30
2008,05,20,01,32,14.30
2008,05,20,01,33,14.30
2008,05,20,01,34,14.30
2008,05,20,01,35,14.30
2008,05,20,01,36,14.30
2008,05,20,01,37,14.30
2008,05,20,01,38,14.30
2008,05,20,01,39,14.20
2008,05,20,01,40,14.20
2008,05,20,01,41,14.20
2008,05,20,01,42,14.20
2008,05,20,01,43,14.20
2008,05,20,01,44,14.20
2008,05,20,01,45,14.20
2008,05,20,01,46,14.10
2008,05,20,01,47,14.10
2008,05,20,01,48,14.10
2008,05,20,01,49,14.10
2008,05,20,01,50,14.10
2008,05,20,01,51,14.10
2008,05,20,01,52,14.10
2008,05,20,01,53,14.10
2008,05,20,01,54,14.10
2008,05,20,01,55,14.10
2008,05,20,01,56,14.10
2008,05,20,01,57,14.10
2008,05,20,01,58,14.10
2008,05,20,01,59,14.00
2008,05,20,02,00,14.00
2008,05,20,02,01,14.00
2008,05,20,02,02,14.00
2008,05,20,02,03,14.00
2008,05,20,02,04,14.00
2008,05,20,02,05,14.00
2008,05,20,02,06,14.00
2008,05,20,02,07,14.00
2008,05,20,02,08,14.00
2008,05,20,02,09,14.00
2008,05,20,02,10,14.00
2008,05,20,02,11,13.90
2008,05,20,02,12,13.90
2008,05,20,02,13,13.90
2008,05,20,02,14,13.90
2008,05,20,02,15,13.90
2008,05,20,02,16,13.90
2008,05,20,02,17,13.90
2008,05,20,02,18,13.90
2008,05,20,02,19,13.90
2008,05,20,02,20,13.90
2008,05,20,02,21,13.90
2008,05,20,02,22,13.90
2008,05,20,02,23,13.90
2008,05,20,02,24,13.90
2008,05,20,02,25,13.90
2008,05,20,02,26,13.90
2008,05,20,02,27,13.90
2008,05,20,02,28,13.90
2008,05,20,02,29,13.90
2008,05,20,02,30,13.90
2008,05,20,02,31,13.80
2008,05,20,02,32,13.80
2008,05,20,02,33,13.80
2008,05,20,02,34,13.80
2008,05,20,02,35,13.80
2008,05,20,02,36,13.80
2008,05,20,02,37,13.80
2008,05,20,02,38,13.80
2008,05,20,02,39,13.80
2008,05,20,02,40,13.80
2008,05,20,02,41,13.80
2008,05,20,02,42,13.80
2008,05,20,02,43,13.80
2008,05,20,02,44,13.70
2008,05,20,02,45,13.70
2008,05,20,02,46,13.70
2008,05,20,02,47,13.70
2008,05,20,02,48,13.70
2008,05,20,02,49,13.70
2008,05,20,02,50,13.70
2008,05,20,02,51,13.70
2008,05,20,02,52,13.70
2008,05,20,02,53,13.70
2008,05,20,02,54,13.70
2008,05,20,02,55,13.60
2008,05,20,02,56,13.60
2008,05,20,02,57,13.60
2008,05,20,02,58,13.60
2008,05,20,02,59,13.60
2008,05,20,03,00,13.60
2008,05,20,03,01,13.50
2008,05,20,03,02,13.50
2008,05,20,03,03,13.50
2008,05,20,03,04,13.50
2008,05,20,03,05,13.40
2008,05,20,03,06,13.40
2008,05,20,03,07,13.40
2008,05,20,03,08,13.40
2008,05,20,03,09,13.40
2008,05,20,03,10,13.40
2008,05,20,03,11,13.40
2008,05,20,03,12,13.40
2008,05,20,03,13,13.30
2008,05,20,03,14,13.30
2008,05,20,03,15,13.30
2008,05,20,03,16,13.30
2008,05,20,03,17,13.30
2008,05,20,03,18,13.30
2008,05,20,03,19,13.30
2008,05,20,03,20,13.30
2008,05,20,03,21,13.30
2008,05,20,03,22,13.30
2008,05,20,03,23,13.30
2008,05,20,03,24,13.30
2008,05,20,03,25,13.30
2008,05,20,03,26,13.30
2008,05,20,03,27,13.20
2008,05,20,03,28,13.20
2008,05,20,03,29,13.20
2008,05,20,03,30,13.10
2008,05,20,03,31,13.10
2008,05,20,03,32,13.10
2008,05,20,03,33,13.10
2008,05,20,03,34,13.00
2008,05,20,03,35,13.00
2008,05,20,03,36,12.90
2008,05,20,03,37,12.90
2008,05,20,03,38,12.90
2008,05,20,03,39,12.90
2008,05,20,03,40,12.80
2008,05,20,03,41,12.80
2008,05,20,03,42,12.80
2008,05,20,03,43,12.80
2008,05,20,03,44,12.70
2008,05,20,03,45,12.70
2008,05,20,03,46,12.70
2008,05,20,03,47,12.70
2008,05,20,03,48,12.70
2008,05,20,03,49,12.70
2008,05,20,03,50,12.70
2008,05,20,03,51,12.70
2008,05,20,03,52,12.60
2008,05,20,03,53,12.60
2008,05,20,03,54,12.60
2008,05,20,03,55,12.60
2008,05,20,03,56,12.60
2008,05,20,03,57,12.60
2008,05,20,03,58,12.50
2008,05,20,03,59,12.50
2008,05,20,04,00,12.50
2008,05,20,04,01,12.50
2008,05,20,04,02,12.50
2008,05,20,04,03,12.50
2008,05,20,04,04,12.40
2008,05,20,04,05,12.40
2008,05,20,04,06,12.40
2008,05,20,04,07,12.50
2008,05,20,04,08,12.50
2008,05,20,04,09,12.50
2008,05,20,04,10,12.60
2008,05,20,04,11,12.60
2008,05,20,04,12,12.60
2008,05,20,04,13,12.60
2008,05,20,04,14,12.60
2008,05,20,04,15,12.60
2008,05,20,04,16,12.60
2008,05,20,04,17,12.60
2008,05,20,04,18,12.70
2008,05,20,04,19,12.70
2008,05,20,04,20,12.80
2008,05,20,04,21,12.80
2008,05,20,04,22,12.90
2008,05,20,04,23,13.00
2008,05,20,04,24,13.20
2008,05,20,04,25,13.30
2008,05,20,04,26,13.50
2008,05,20,04,27,13.60
2008,05,20,04,28,13.70
2008,05,20,04,29,13.80
2008,05,20,04,30,13.90
2008,05,20,04,31,13.90
2008,05,20,04,32,14.00
2008,05,20,04,33,14.00
2008,05,20,04,34,14.00
2008,05,20,04,35,13.90
2008,05,20,04,36,14.00
2008,05,20,04,37,14.00
2008,05,20,04,38,14.10
2008,05,20,04,39,14.10
2008,05,20,04,40,14.10
2008,05,20,04,41,14.00
2008,05,20,04,42,14.00
2008,05,20,04,43,13.90
2008,05,20,04,44,13.80
2008,05,20,04,45,13.80
2008,05,20,04,46,13.80
2008,05,20,04,47,13.70
2008,05,20,04,48,13.70
2008,05,20,04,49,13.60
2008,05,20,04,50,13.50
2008,05,20,04,51,13.40
2008,05,20,04,52,13.30
2008,05,20,04,53,13.30
2008,05,20,04,54,13.20
2008,05,20,04,55,13.10
2008,05,20,04,56,13.00
2008,05,20,04,57,13.00
2008,05,20,04,58,12.90
2008,05,20,04,59,12.80
2008,05,20,05,00,12.80
2008,05,20,05,01,12.70
2008,05,20,05,02,12.60
2008,05,20,05,03,12.60
2008,05,20,05,04,12.50
2008,05,20,05,05,12.50
2008,05,20,05,06,12.40
2008,05,20,05,07,12.40
2008,05,20,05,08,12.40
2008,05,20,05,09,12.30
2008,05,20,05,10,12.30
2008,05,20,05,11,12.20
2008,05,20,05,12,12.20
2008,05,20,05,13,12.20
2008,05,20,05,14,12.10
2008,05,20,05,15,12.10
2008,05,20,05,16,12.00
2008,05,20,05,17,12.00
2008,05,20,05,18,11.90
2008,05,20,05,19,11.90
2008,05,20,05,20,11.90
2008,05,20,05,21,11.90
2008,05,20,05,22,11.90
2008,05,20,05,23,11.80
2008,05,20,05,24,11.80
2008,05,20,05,25,11.80
2008,05,20,05,26,11.80
2008,05,20,05,27,11.80
2008,05,20,05,28,11.80
2008,05,20,05,29,11.80
2008,05,20,05,30,11.70
2008,05,20,05,31,11.70
2008,05,20,05,32,11.70
2008,05,20,05,33,11.70
2008,05,20,05,34,11.60
2008,05,20,05,35,11.60
2008,05,20,05,36,11.60
2008,05,20,05,37,11.50
2008,05,20,05,38,11.50
2008,05,20,05,39,11.50
2008,05,20,05,40,11.50
2008,05,20,05,41,11.50
2008,05,20,05,42,11.50
2008,05,20,05,43,11.50
2008,05,20,05,44,11.40
2008,05,20,05,45,11.40
2008,05,20,05,46,11.50
2008,05,20,05,47,11.40
2008,05,20,05,48,11.40
2008,05,20,05,49,11.40
2008,05,20,05,50,11.40
2008,05,20,05,51,11.40
2008,05,20,05,52,11.40
2008,05,20,05,53,11.40
2008,05,20,05,54,11.40
2008,05,20,05,55,11.40
2008,05,20,05,56,11.40
2008,05,20,05,57,11.40
2008,05,20,05,58,11.40
2008,05,20,05,59,11.40
2008,05,20,06,00,11.40
2008,05,20,06,01,11.50
2008,05,20,06,02,11.50
2008,05,20,06,03,11.50
2008,05,20,06,04,11.50
2008,05,20,06,05,11.50
2008,05,20,06,06,11.50
2008,05,20,06,07,11.50
2008,05,20,06,08,11.50
2008,05,20,06,09,11.50
2008,05,20,06,10,11.50
2008,05,20,06,11,11.50
2008,05,20,06,12,11.50
2008,05,20,06,13,11.50
2008,05,20,06,14,11.50
2008,05,20,06,15,11.50
2008,05,20,06,16,11.50
2008,05,20,06,17,11.50
2008,05,20,06,18,11.50
2008,05,20,06,19,11.50
2008,05,20,06,20,11.50
2008,05,20,06,21,11.50
2008,05,20,06,22,11.50
2008,05,20,06,23,11.50
2008,05,20,06,24,11.50
2008,05,20,06,25,11.60
2008,05,20,06,26,11.60
2008,05,20,06,27,11.60
2008,05,20,06,28,11.60
2008,05,20,06,29,11.60
2008,05,20,06,30,11.60
2008,05,20,06,31,11.60
2008,05,20,06,32,11.60
2008,05,20,06,33,11.60
2008,05,20,06,34,11.60
2008,05,20,06,35,11.60
2008,05,20,06,36,11.60
2008,05,20,06,37,11.60
2008,05,20,06,38,11.60
2008,05,20,06,39,11.60
2008,05,20,06,40,11.60
2008,05,20,06,41,11.70
2008,05,20,06,42,11.70
2008,05,20,06,43,11.70
2008,05,20,06,44,11.70
2008,05,20,06,45,11.70
2008,05,20,06,46,11.70
2008,05,20,06,47,11.70
2008,05,20,06,48,11.70
2008,05,20,06,49,11.70
2008,05,20,06,50,11.70
2008,05,20,06,51,11.70
2008,05,20,06,52,11.70
2008,05,20,06,53,11.70
2008,05,20,06,54,11.70
2008,05,20,06,55,11.70
2008,05,20,06,56,11.70
2008,05,20,06,57,11.70
2008,05,20,06,58,11.70
2008,05,20,06,59,11.70
2008,05,20,07,00,11.70
2008,05,20,07,01,11.70
2008,05,20,07,02,11.70
2008,05,20,07,03,11.70
2008,05,20,07,04,11.70
2008,05,20,07,05,11.70
2008,05,20,07,06,11.70
2008,05,20,07,07,11.70
2008,05,20,07,08,11.70
2008,05,20,07,09,11.70
2008,05,20,07,10,11.70
2008,05,20,07,11,11.70
2008,05,20,07,12,11.70
2008,05,20,07,13,11.70
2008,05,20,07,14,11.70
2008,05,20,07,15,11.70
2008,05,20,07,16,11.70
2008,05,20,07,17,11.70
2008,05,20,07,18,11.70
2008,05,20,07,19,11.70
2008,05,20,07,20,11.70
2008,05,20,07,21,11.70
2008,05,20,07,22,11.70
2008,05,20,07,23,11.70
2008,05,20,07,24,11.70
2008,05,20,07,25,11.70
2008,05,20,07,26,11.70
2008,05,20,07,27,11.70
2008,05,20,07,28,11.70
2008,05,20,07,29,11.70
2008,05,20,07,30,11.70
2008,05,20,07,31,11.70
2008,05,20,07,32,11.70
2008,05,20,07,33,11.70
2008,05,20,07,34,11.70
2008,05,20,07,35,11.70
2008,05,20,07,36,11.70
2008,05,20,07,37,11.70
2008,05,20,07,38,11.70
2008,05,20,07,39,11.60
2008,05,20,07,40,11.60
2008,05,20,07,41,11.60
2008,05,20,07,42,11.60
2008,05,20,07,43,11.60
2008,05,20,07,44,11.50
2008,05,20,07,45,11.50
2008,05,20,07,46,11.40
2008,05,20,07,47,11.40
2008,05,20,07,48,11.40
2008,05,20,07,49,11.30
2008,05,20,07,50,11.30
2008,05,20,07,51,11.30
2008,05,20,07,52,11.30
2008,05,20,07,53,11.30
2008,05,20,07,54,11.30
2008,05,20,07,55,11.30
2008,05,20,07,56,11.30
2008,05,20,07,57,11.30
2008,05,20,07,58,11.20
2008,05,20,07,59,11.20
2008,05,20,08,00,11.20
2008,05,20,08,01,11.20
2008,05,20,08,02,11.20
2008,05,20,08,03,11.30
2008,05,20,08,04,11.40
2008,05,20,08,05,11.40
2008,05,20,08,06,11.50
2008,05,20,08,07,11.50
2008,05,20,08,08,11.50
2008,05,20,08,09,11.40
2008,05,20,08,10,11.40
2008,05,20,08,11,11.40
2008,05,20,08,12,11.40
2008,05,20,08,13,11.40
2008,05,20,08,14,11.40
2008,05,20,08,15,11.40
2008,05,20,08,16,11.40
2008,05,20,08,17,11.40
2008,05,20,08,18,11.40
2008,05,20,08,19,11.40
2008,05,20,08,20,11.30
2008,05,20,08,21,11.30
2008,05,20,08,22,11.30
2008,05,20,08,23,11.30
2008,05,20,08,24,11.30
2008,05,20,08,25,11.30
2008,05,20,08,26,11.30
2008,05,20,08,27,11.30
2008,05,20,08,28,11.30
2008,05,20,08,29,11.30
2008,05,20,08,30,11.30
2008,05,20,08,31,11.30
2008,05,20,08,32,11.30
2008,05,20,08,33,11.30
2008,05,20,08,34,11.30
2008,05,20,08,35,11.30
2008,05,20,08,36,11.20
2008,05,20,08,37,11.20
2008,05,20,08,38,11.20
2008,05,20,08,39,11.20
2008,05,20,08,40,11.20
2008,05,20,08,41,11.20
2008,05,20,08,42,11.20
2008,05,20,08,43,11.20
2008,05,20,08,44,11.20
2008,05,20,08,45,11.20
2008,05,20,08,46,11.10
2008,05,20,08,47,11.10
2008,05,20,08,48,11.10
2008,05,20,08,49,11.10
2008,05,20,08,50,11.10
2008,05,20,08,51,11.00
2008,05,20,08,52,11.00
2008,05,20,08,53,11.00
2008,05,20,08,54,11.00
2008,05,20,08,55,11.00
2008,05,20,08,56,11.00
2008,05,20,08,57,11.00
2008,05,20,08,58,11.00
2008,05,20,08,59,11.00
2008,05,20,09,00,11.00
2008,05,20,09,01,11.10
2008,05,20,09,02,11.00
2008,05,20,09,03,11.00
2008,05,20,09,04,11.00
2008,05,20,09,05,11.00
2008,05,20,09,06,11.10
2008,05,20,09,07,11.10
2008,05,20,09,08,11.10
2008,05,20,09,09,11.20
2008,05,20,09,10,11.30
2008,05,20,09,11,11.30
2008,05,20,09,12,11.40
2008,05,20,09,13,11.40
2008,05,20,09,14,11.50
2008,05,20,09,15,11.60
2008,05,20,09,16,11.60
2008,05,20,09,17,11.60
2008,05,20,09,18,11.60
2008,05,20,09,19,11.60
2008,05,20,09,20,11.60
2008,05,20,09,21,11.60
2008,05,20,09,22,11.60
2008,05,20,09,23,11.60
2008,05,20,09,24,11.60
2008,05,20,09,25,11.70
2008,05,20,09,26,11.70
2008,05,20,09,27,11.70
2008,05,20,09,28,11.70
2008,05,20,09,29,11.70
2008,05,20,09,30,11.70
2008,05,20,09,31,11.70
2008,05,20,09,32,11.70
2008,05,20,09,33,11.70
2008,05,20,09,34,11.60
2008,05,20,09,35,11.60
2008,05,20,09,36,11.60
2008,05,20,09,37,11.60
2008,05,20,09,38,11.60
2008,05,20,09,39,11.60
2008,05,20,09,40,11.60
2008,05,20,09,41,11.60
2008,05,20,09,42,11.50
2008,05,20,09,43,11.50
2008,05,20,09,44,11.40
2008,05,20,09,45,11.40
2008,05,20,09,46,11.40
2008,05,20,09,47,11.40
2008,05,20,09,48,11.30
2008,05,20,09,49,11.30
2008,05,20,09,50,11.30
2008,05,20,09,51,11.30
2008,05,20,09,52,11.30
2008,05,20,09,53,11.30
2008,05,20,09,54,11.30
2008,05,20,09,55,11.20
2008,05,20,09,56,11.20
2008,05,20,09,57,11.20
2008,05,20,09,58,11.20
2008,05,20,09,59,11.10
2008,05,20,10,00,11.10
2008,05,20,10,01,11.00
2008,05,20,10,02,11.00
2008,05,20,10,03,10.90
2008,05,20,10,04,10.90
2008,05,20,10,05,10.90
2008,05,20,10,06,10.90
2008,05,20,10,07,10.90
2008,05,20,10,08,10.90
2008,05,20,10,09,10.90
2008,05,20,10,10,10.90
2008,05,20,10,11,10.90
2008,05,20,10,12,11.00
2008,05,20,10,13,11.10
2008,05,20,10,14,11.20
2008,05,20,10,15,11.30
2008,05,20,10,16,11.40
2008,05,20,10,17,11.50
2008,05,20,10,18,11.50
2008,05,20,10,19,11.60
2008,05,20,10,20,11.60
2008,05,20,10,21,11.70
2008,05,20,10,22,11.70
2008,05,20,10,23,11.80
2008,05,20,10,24,11.80
2008,05,20,10,25,11.80
2008,05,20,10,26,11.90
2008,05,20,10,27,11.90
2008,05,20,10,28,11.90
2008,05,20,10,29,12.00
2008,05,20,10,30,12.00
2008,05,20,10,31,12.10
2008,05,20,10,32,12.10
2008,05,20,10,33,12.10
2008,05,20,10,34,12.10
2008,05,20,10,35,12.20
2008,05,20,10,36,12.20
2008,05,20,10,37,12.30
2008,05,20,10,38,12.30
2008,05,20,10,39,12.30
2008,05,20,10,40,12.40
2008,05,20,10,41,12.50
2008,05,20,10,42,12.50
2008,05,20,10,43,12.60
2008,05,20,10,44,12.60
2008,05,20,10,45,12.70
2008,05,20,10,46,12.70
2008,05,20,10,47,12.70
2008,05,20,10,48,12.80
2008,05,20,10,49,12.80
2008,05,20,10,50,12.80
2008,05,20,10,51,12.90
2008,05,20,10,52,12.90
2008,05,20,10,53,12.90
2008,05,20,10,54,12.90
2008,05,20,10,55,12.90
2008,05,20,10,56,13.00
2008,05,20,10,57,13.10
2008,05,20,10,58,13.10
2008,05,20,10,59,13.20
2008,05,20,11,00,13.30
2008,05,20,11,01,13.30
2008,05,20,11,02,13.40
2008,05,20,11,03,13.40
2008,05,20,11,04,13.50
2008,05,20,11,05,13.50
2008,05,20,11,06,13.60
2008,05,20,11,07,13.70
2008,05,20,11,08,13.70
2008,05,20,11,09,13.70
2008,05,20,11,10,13.80
2008,05,20,11,11,13.80
2008,05,20,11,12,13.90
2008,05,20,11,13,13.90
2008,05,20,11,14,13.90
2008,05,20,11,15,13.90
2008,05,20,11,16,13.90
2008,05,20,11,17,13.90
2008,05,20,11,18,14.00
2008,05,20,11,19,14.00
2008,05,20,11,20,14.00
2008,05,20,11,21,14.10
2008,05,20,11,22,14.20
2008,05,20,11,23,14.30
2008,05,20,11,24,14.30
2008,05,20,11,25,14.40
2008,05,20,11,26,14.40
2008,05,20,11,27,14.50
2008,05,20,11,28,14.50
2008,05,20,11,29,14.50
2008,05,20,11,30,14.50
2008,05,20,11,31,14.50
2008,05,20,11,32,14.50
2008,05,20,11,33,14.40
2008,05,20,11,34,14.30
2008,05,20,11,35,14.30
2008,05,20,11,36,14.30
2008,05,20,11,37,14.30
2008,05,20,11,38,14.20
2008,05,20,11,39,14.10
2008,05,20,11,40,14.00
2008,05,20,11,41,13.90
2008,05,20,11,42,13.90
2008,05,20,11,43,13.80
2008,05,20,11,44,13.90
2008,05,20,11,45,14.00
2008,05,20,11,46,14.00
2008,05,20,11,47,14.10
2008,05,20,11,48,14.20
2008,05,20,11,49,14.30
2008,05,20,11,50,14.40
2008,05,20,11,51,14.50
2008,05,20,11,52,14.60
2008,05,20,11,53,14.70
2008,05,20,11,54,14.90
2008,05,20,11,55,15.00
2008,05,20,11,56,15.00
2008,05,20,11,57,15.00
2008,05,20,11,58,15.00
2008,05,20,11,59,15.00
2008,05,20,12,00,15.00
2008,05,20,12,01,15.00
2008,05,20,12,02,15.00
2008,05,20,12,03,15.00
2008,05,20,12,04,15.00
2008,05,20,12,05,15.00
2008,05,20,12,06,15.00
2008,05,20,12,07,15.00
2008,05,20,12,08,15.00
2008,05,20,12,09,15.00
2008,05,20,12,10,15.00
2008,05,20,12,11,14.80
2008,05,20,12,12,14.70
2008,05,20,12,13,14.60
2008,05,20,12,14,14.50
2008,05,20,12,15,14.40
2008,05,20,12,16,14.40
2008,05,20,12,17,14.30
2008,05,20,12,18,14.20
2008,05,20,12,19,14.20
2008,05,20,12,20,14.10
2008,05,20,12,21,14.00
2008,05,20,12,22,14.00
2008,05,20,12,23,13.90
2008,05,20,12,24,13.90
2008,05,20,12,25,13.90
2008,05,20,12,26,13.90
2008,05,20,12,27,13.90
2008,05,20,12,28,13.90
2008,05,20,12,29,13.90
2008,05,20,12,30,13.80
2008,05,20,12,31,13.90
2008,05,20,12,32,13.90
2008,05,20,12,33,13.90
2008,05,20,12,34,13.90
2008,05,20,12,35,13.90
2008,05,20,12,36,13.90
2008,05,20,12,37,13.90
2008,05,20,12,38,13.80
2008,05,20,12,39,13.80
2008,05,20,12,40,13.80
2008,05,20,12,41,13.90
2008,05,20,12,42,13.90
2008,05,20,12,43,13.90
2008,05,20,12,44,13.90
2008,05,20,12,45,14.00
2008,05,20,12,46,14.10
2008,05,20,12,47,14.20
2008,05,20,12,48,14.20
2008,05,20,12,49,14.30
2008,05,20,12,50,14.40
2008,05,20,12,51,14.40
2008,05,20,12,52,14.50
2008,05,20,12,53,14.50
2008,05,20,12,54,14.60
2008,05,20,12,55,14.60
2008,05,20,12,56,14.60
2008,05,20,12,57,14.60
2008,05,20,12,58,14.60
2008,05,20,12,59,14.60
2008,05,20,13,00,14.60
2008,05,20,13,01,14.60
2008,05,20,13,02,14.60
2008,05,20,13,03,14.60
2008,05,20,13,04,14.60
2008,05,20,13,05,14.60
2008,05,20,13,06,14.60
2008,05,20,13,07,14.60
2008,05,20,13,08,14.60
2008,05,20,13,09,14.60
2008,05,20,13,10,14.60
2008,05,20,13,11,14.50
2008,05,20,13,12,14.50
2008,05,20,13,13,14.40
2008,05,20,13,14,14.40
2008,05,20,13,15,14.40
2008,05,20,13,16,14.40
2008,05,20,13,17,14.50
2008,05,20,13,18,14.50
2008,05,20,13,19,14.40
2008,05,20,13,20,14.40
2008,05,20,13,21,14.40
2008,05,20,13,22,14.40
2008,05,20,13,23,14.30
2008,05,20,13,24,14.30
2008,05,20,13,25,14.30
2008,05,20,13,26,14.30
2008,05,20,13,27,14.20
2008,05,20,13,28,14.20
2008,05,20,13,29,14.20
2008,05,20,13,30,14.20
2008,05,20,13,31,14.20
2008,05,20,13,32,14.20
2008,05,20,13,33,14.20
2008,05,20,13,34,14.20
2008,05,20,13,35,14.20
2008,05,20,13,36,14.20
2008,05,20,13,37,14.20
2008,05,20,13,38,14.20
2008,05,20,13,39,14.20
2008,05,20,13,40,14.20
2008,05,20,13,41,14.20
2008,05,20,13,42,14.20
2008,05,20,13,43,14.20
2008,05,20,13,44,14.10
2008,05,20,13,45,14.10
2008,05,20,13,46,14.10
2008,05,20,13,47,14.10
2008,05,20,13,48,14.10
2008,05,20,13,49,14.10
2008,05,20,13,50,14.10
2008,05,20,13,51,14.10
2008,05,20,13,52,14.10
2008,05,20,13,53,14.10
2008,05,20,13,54,14.10
2008,05,20,13,55,14.20
2008,05,20,13,56,14.20
2008,05,20,13,57,14.20
2008,05,20,13,58,14.20
2008,05,20,13,59,14.20
2008,05,20,14,00,14.30
2008,05,20,14,01,14.30
2008,05,20,14,02,14.40
2008,05,20,14,03,14.40
2008,05,20,14,04,14.40
2008,05,20,14,05,14.40
2008,05,20,14,06,14.40
2008,05,20,14,07,14.40
2008,05,20,14,08,14.40
2008,05,20,14,09,14.40
2008,05,20,14,10,14.40
2008,05,20,14,11,14.40
2008,05,20,14,12,14.40
2008,05,20,14,13,14.50
2008,05,20,14,14,14.50
2008,05,20,14,15,14.60
2008,05,20,14,16,14.70
2008,05,20,14,17,14.80
2008,05,20,14,18,14.90
2008,05,20,14,19,15.00
2008,05,20,14,20,15.00
2008,05,20,14,21,15.00
2008,05,20,14,22,15.00
2008,05,20,14,23,15.00
2008,05,20,14,24,15.00
2008,05,20,14,25,15.00
2008,05,20,14,26,15.00
2008,05,20,14,27,15.00
2008,05,20,14,28,15.00
2008,05,20,14,29,15.00
2008,05,20,14,30,15.00
2008,05,20,14,31,15.00
2008,05,20,14,32,14.90
2008,05,20,14,33,14.90
2008,05,20,14,34,14.80
2008,05,20,14,35,14.90
2008,05,20,14,36,14.90
2008,05,20,14,37,15.00
2008,05,20,14,38,15.00
2008,05,20,14,39,15.00
2008,05,20,14,40,15.00
2008,05,20,14,41,15.00
2008,05,20,14,42,15.00
2008,05,20,14,43,15.00
2008,05,20,14,44,15.00
2008,05,20,14,45,15.00
2008,05,20,14,46,15.00
2008,05,20,14,47,15.00
2008,05,20,14,48,15.00
2008,05,20,14,49,15.00
2008,05,20,14,50,15.10
2008,05,20,14,51,15.10
2008,05,20,14,52,15.20
2008,05,20,14,53,15.20
2008,05,20,14,54,15.20
2008,05,20,14,55,15.20
2008,05,20,14,56,15.20
2008,05,20,14,57,15.20
2008,05,20,14,58,15.20
2008,05,20,14,59,15.20
2008,05,20,15,00,15.20
2008,05,20,15,01,15.10
2008,05,20,15,02,15.10
2008,05,20,15,03,15.10
2008,05,20,15,04,15.20
2008,05,20,15,05,15.20
2008,05,20,15,06,15.40
2008,05,20,15,07,15.50
2008,05,20,15,08,15.50
2008,05,20,15,09,15.40
2008,05,20,15,10,15.50
2008,05,20,15,11,15.60
2008,05,20,15,12,15.70
2008,05,20,15,13,15.80
2008,05,20,15,14,15.90
2008,05,20,15,15,15.90
2008,05,20,15,16,15.90
2008,05,20,15,17,15.90
2008,05,20,15,18,15.90
2008,05,20,15,19,15.90
2008,05,20,15,20,15.90
2008,05,20,15,21,15.90
2008,05,20,15,22,15.80
2008,05,20,15,23,15.70
2008,05,20,15,24,15.60
2008,05,20,15,25,15.60
2008,05,20,15,26,15.50
2008,05,20,15,27,15.60
2008,05,20,15,28,15.70
2008,05,20,15,29,15.80
2008,05,20,15,30,15.90
2008,05,20,15,31,16.00
2008,05,20,15,32,16.10
2008,05,20,15,33,16.20
2008,05,20,15,34,16.10
2008,05,20,15,35,16.00
2008,05,20,15,36,16.00
2008,05,20,15,37,16.10
2008,05,20,15,38,16.10
2008,05,20,15,39,16.10
2008,05,20,15,40,16.10
2008,05,20,15,41,16.20
2008,05,20,15,42,16.30
2008,05,20,15,43,16.30
2008,05,20,15,44,16.20
2008,05,20,15,45,16.20
2008,05,20,15,46,16.10
2008,05,20,15,47,16.00
2008,05,20,15,48,15.90
2008,05,20,15,49,15.90
2008,05,20,15,50,15.90
2008,05,20,15,51,15.90
2008,05,20,15,52,15.90
2008,05,20,15,53,15.80
2008,05,20,15,54,15.80
2008,05,20,15,55,15.90
2008,05,20,15,56,16.00
2008,05,20,15,57,16.10
2008,05,20,15,58,16.20
2008,05,20,15,59,16.20
2008,05,20,16,00,16.20
2008,05,20,16,01,16.10
2008,05,20,16,02,16.00
2008,05,20,16,03,16.00
2008,05,20,16,04,16.00
2008,05,20,16,05,16.00
2008,05,20,16,06,15.90
2008,05,20,16,07,15.90
2008,05,20,16,08,15.80
2008,05,20,16,09,15.80
2008,05,20,16,10,15.80
2008,05,20,16,11,15.90
2008,05,20,16,12,15.90
2008,05,20,16,13,15.90
2008,05,20,16,14,16.00
2008,05,20,16,15,16.10
2008,05,20,16,16,16.10
2008,05,20,16,17,16.10
2008,05,20,16,18,16.20
2008,05,20,16,19,16.20
2008,05,20,16,20,16.20
2008,05,20,16,21,16.20
2008,05,20,16,22,16.10
2008,05,20,16,23,16.00
2008,05,20,16,24,15.90
2008,05,20,16,25,15.80
2008,05,20,16,26,15.80
2008,05,20,16,27,15.70
2008,05,20,16,28,15.70
2008,05,20,16,29,15.60
2008,05,20,16,30,15.50
2008,05,20,16,31,15.40
2008,05,20,16,32,15.30
2008,05,20,16,33,15.30
2008,05,20,16,34,15.30
2008,05,20,16,35,15.40
2008,05,20,16,36,15.40
2008,05,20,16,37,15.50
2008,05,20,16,38,15.50
2008,05,20,16,39,15.40
2008,05,20,16,40,15.30
2008,05,20,16,41,15.30
2008,05,20,16,42,15.40
2008,05,20,16,43,15.30
2008,05,20,16,44,15.30
2008,05,20,16,45,15.30
2008,05,20,16,46,15.30
2008,05,20,16,47,15.20
2008,05,20,16,48,15.10
2008,05,20,16,49,15.10
2008,05,20,16,50,15.10
2008,05,20,16,51,15.10
2008,05,20,16,52,15.10
2008,05,20,16,53,15.00
2008,05,20,16,54,15.00
2008,05,20,16,55,15.00
2008,05,20,16,56,15.00
2008,05,20,16,57,15.00
2008,05,20,16,58,14.80
2008,05,20,16,59,14.80
2008,05,20,17,00,14.70
2008,05,20,17,01,14.70
2008,05,20,17,02,14.60
2008,05,20,17,03,14.50
2008,05,20,17,04,14.50
2008,05,20,17,05,14.60
2008,05,20,17,06,14.60
2008,05,20,17,07,14.70
2008,05,20,17,08,14.80
2008,05,20,17,09,14.90
2008,05,20,17,10,15.00
2008,05,20,17,11,15.00
2008,05,20,17,12,15.00
2008,05,20,17,13,15.00
2008,05,20,17,14,15.10
2008,05,20,17,15,15.10
2008,05,20,17,16,15.00
2008,05,20,17,17,15.00
2008,05,20,17,18,15.00
2008,05,20,17,19,14.90